Location: Esp�n
(42.4593°N, 0.2047°W)
Time: 21:08:36
(UTC+00:00)

Cosmos 2263 Rocket - Visible Passes

Search period start: 18 June 2021 00:00
Search period end: 28 June 2021 00:00
Orbit: 822 x 849 km, 71.0° (Epoch: 18 June)

Date Brightness Start Highest point End Pass type
(mag) Time Alt. Az. Time Alt. Az. Time Alt. Az.
18 Jun 2.5 20:16:57 10° NNW 20:22:37 69° WSW 20:28:15 10° SSE visible
20 Jun 4.9 21:31:01 10° W 21:32:00 10° W 21:33:00 10° WSW visible
21 Jun 4.8 21:13:24 10° WNW 21:15:18 12° W 21:17:11 10° WSW visible
22 Jun 4.8 20:56:06 10° WNW 20:58:35 13° W 21:01:03 10° WSW visible
23 Jun 4.7 20:38:57 10° WNW 20:41:52 14° W 20:44:46 10° SW visible
24 Jun 4.7 20:21:52 10° WNW 20:25:09 16° W 20:28:25 10° SW visible
